Adak, AK

12:53 PM HDT on June 25, 2017 (GMT -0900)
Adak

Weather History for PADK - December, 2013

Change the Weather History Date:

Thursday, December 26, 2013

  Actual Average Record
Temperature  
Mean Temperature 38 °F -  
Max Temperature 41 °F 37 °F 45 °F (1949)
Min Temperature 35 °F 30 °F 13 °F (1953)
Degree Days  
Heating Degree Days 27    
Moisture  
Dew Point 35 °F    
Average Humidity 84    
Maximum Humidity 87    
Minimum Humidity 74    
Precipitation  
Precipitation 0.00 in - - ()
Sea Level Pressure  
Sea Level Pressure 29.14 in    
Wind  
Wind Speed - (North)    
Max Wind Speed -    
Max Gust Speed -    
Visibility 9 miles    
Events      
Averages and records for this station are not official NWS values.
T = Trace of Precipitation, MM = Missing Value Source: NWS Daily Summary

Daily Weather History Graph

Daily Weather History Graph

Search for Another Location

Airport or City:

Trip Planner

Search our weather history database for the weather conditions in past years. The results will help you decide how hot, cold, wet, or windy it might be!

Date:

Astronomy

Dec. 26, 2013 Rise Set
Actual Time 9:53 AM HST 5:41 PM HST
Civil Twilight 9:13 AM HST 6:21 PM HST
Nautical Twilight 8:29 AM HST 7:05 PM HST
Astronomical Twilight 7:48 AM HST 7:46 PM HST
Moon 3:05 AM HST (12/26) 1:53 PM HST (12/26)
Length of Visible Light 9h 08m
Length of Day
7h 47m
Last Quarter, 36% of the Moon is Illuminated
Dec 26
Last Quarter
Jan 1
New
Jan 7
First Quarter
Jan 15
Full
Jan 23
Last Quarter

Hourly Weather History & Observations

Time (HST) Temp. Dew Point Humidity Pressure Visibility Wind Dir Wind Speed Gust Speed Precip Events Conditions
12:16 AM 37.4 °F 33.8 °F 87% 29.34 in 10.0 mi North - - N/A   Overcast
12:56 AM 37.4 °F 33.8 °F 87% 29.33 in 10.0 mi North - - N/A   Overcast
1:16 AM 37.4 °F 33.8 °F 87% 29.32 in 10.0 mi North - - N/A   Overcast
1:56 AM 39.2 °F 33.8 °F 81% 29.31 in 10.0 mi North - - N/A   Overcast
2:16 AM 39.2 °F 35.6 °F 87% 29.30 in 6.0 mi North - - N/A   Overcast
2:36 AM 39.2 °F 35.6 °F 87% 29.29 in 10.0 mi North - - N/A   Overcast
2:56 AM 39.2 °F 35.6 °F 87% 29.28 in 10.0 mi North - - N/A   Overcast
3:16 AM 39.2 °F 33.8 °F 81% 29.28 in 10.0 mi North - - N/A   Overcast
3:36 AM 37.4 °F 33.8 °F 87% 29.27 in 10.0 mi North - - N/A   Overcast
3:56 AM 37.4 °F 33.8 °F 87% 29.27 in 10.0 mi North - - N/A   Mostly Cloudy
4:16 AM 37.4 °F 33.8 °F 87% 29.26 in 10.0 mi North - - N/A   Overcast
4:36 AM 39.2 °F 33.8 °F 81% 29.25 in 10.0 mi North - - N/A   Overcast
4:56 AM 39.2 °F 33.8 °F 81% 29.24 in 9.0 mi North - - N/A   Overcast
5:16 AM 39.2 °F 33.8 °F 81% 29.23 in 10.0 mi North - - N/A   Overcast
5:36 AM 39.2 °F 33.8 °F 81% 29.22 in 10.0 mi North - - N/A   Overcast
5:56 AM 37.4 °F 33.8 °F 87% 29.21 in 10.0 mi North - - N/A   Overcast
6:16 AM 37.4 °F 33.8 °F 87% 29.21 in 10.0 mi North - - N/A   Mostly Cloudy
6:36 AM 39.2 °F 33.8 °F 81% 29.20 in 10.0 mi North - - N/A   Overcast
6:56 AM 39.2 °F 33.8 °F 81% 29.20 in 10.0 mi North - - N/A   Overcast
7:16 AM 39.2 °F 33.8 °F 81% 29.20 in 10.0 mi North - - N/A   Overcast
7:36 AM 39.2 °F 33.8 °F 81% 29.20 in 10.0 mi North - - N/A   Overcast
7:56 AM 37.4 °F 33.8 °F 87% 29.19 in 7.0 mi North - - N/A   Overcast
8:16 AM 37.4 °F 33.8 °F 87% 29.19 in 9.0 mi North - - N/A   Overcast
8:36 AM 37.4 °F 33.8 °F 87% 29.18 in 8.0 mi North - - N/A   Overcast
8:56 AM 37.4 °F 33.8 °F 87% 29.17 in 10.0 mi North - - N/A   Overcast
9:16 AM 37.4 °F 33.8 °F 87% 29.17 in 8.0 mi North - - N/A   Overcast
9:36 AM 37.4 °F 33.8 °F 87% 29.17 in 9.0 mi North - - N/A   Overcast
9:56 AM 37.4 °F 33.8 °F 87% 29.17 in 10.0 mi North - - N/A   Overcast
10:16 AM 39.2 °F 35.6 °F 87% 29.16 in 10.0 mi North - - N/A   Overcast
10:36 AM 39.2 °F 33.8 °F 81% 29.16 in 10.0 mi North - - N/A   Overcast
10:56 AM 39.2 °F 33.8 °F 81% 29.15 in 10.0 mi North - - N/A   Overcast
11:16 AM 39.2 °F 33.8 °F 81% 29.15 in 10.0 mi North - - N/A   Overcast
11:36 AM 39.2 °F 33.8 °F 81% 29.15 in 10.0 mi North - - N/A   Overcast
11:56 AM 39.2 °F 33.8 °F 81% 29.14 in 10.0 mi North - - N/A   Overcast
12:16 PM 39.2 °F 33.8 °F 81% 29.13 in 10.0 mi North - - N/A   Overcast
12:36 PM 39.2 °F 35.6 °F 87% 29.12 in 10.0 mi North - - N/A   Overcast
12:56 PM 39.2 °F 35.6 °F 87% 29.11 in 10.0 mi North - - N/A   Overcast
1:16 PM 39.2 °F 33.8 °F 81% 29.10 in 10.0 mi North - - N/A   Overcast
1:36 PM 39.2 °F 35.6 °F 87% 29.09 in 10.0 mi North - - N/A   Overcast
1:56 PM 41.0 °F 35.6 °F 81% 29.07 in 10.0 mi North - - N/A   Overcast
2:16 PM 39.2 °F 35.6 °F 87% 29.07 in 10.0 mi North - - N/A   Mostly Cloudy
2:36 PM 39.2 °F 35.6 °F 87% 29.07 in 10.0 mi North - - N/A   Overcast
2:56 PM 39.2 °F 35.6 °F 87% 29.05 in 10.0 mi North - - N/A   Overcast
3:16 PM 39.2 °F 35.6 °F 87% 29.05 in 10.0 mi North - - N/A   Scattered Clouds
3:36 PM 39.2 °F 33.8 °F 81% 29.05 in 10.0 mi North - - N/A   Partly Cloudy
3:56 PM 39.2 °F 35.6 °F 87% 29.05 in 10.0 mi North - - N/A   Mostly Cloudy
4:16 PM 39.2 °F 35.6 °F 87% 29.05 in 10.0 mi North - - N/A   Overcast
4:36 PM 39.2 °F 35.6 °F 87% 29.05 in 10.0 mi North - - N/A   Overcast
4:56 PM 39.2 °F 35.6 °F 87% 29.04 in 10.0 mi North - - N/A   Overcast
5:16 PM 39.2 °F 35.6 °F 87% 29.05 in 10.0 mi North - - N/A   Overcast
5:36 PM 37.4 °F 33.8 °F 87% 29.05 in 10.0 mi North - - N/A   Overcast
5:56 PM 37.4 °F 33.8 °F 87% 29.05 in 10.0 mi North - - N/A   Overcast
6:16 PM 39.2 °F 33.8 °F 81% 29.05 in 10.0 mi North - - N/A   Overcast
6:36 PM 39.2 °F 33.8 °F 81% 29.06 in 10.0 mi North - - N/A   Overcast
6:56 PM 39.2 °F 33.8 °F 81% 29.07 in 8.0 mi North - - N/A   Overcast
7:16 PM 39.2 °F 33.8 °F 81% 29.06 in 10.0 mi North - - N/A   Overcast
7:36 PM 39.2 °F 33.8 °F 81% 29.05 in 10.0 mi North - - N/A   Overcast
7:56 PM 39.2 °F 33.8 °F 81% 29.05 in 10.0 mi North - - N/A   Overcast
8:16 PM 39.2 °F 35.6 °F 87% 29.06 in 10.0 mi North - - N/A   Overcast
8:36 PM 39.2 °F 35.6 °F 87% 29.06 in 10.0 mi North - - N/A   Overcast
8:56 PM 39.2 °F 35.6 °F 87% 29.07 in 10.0 mi North - - N/A   Overcast
9:16 PM 39.2 °F 35.6 °F 87% 29.07 in 4.0 mi North - - N/A   Overcast
9:36 PM 39.2 °F 35.6 °F 87% 29.07 in 4.0 mi North - - N/A   Overcast
9:56 PM 39.2 °F 35.6 °F 87% 29.07 in 5.0 mi North - - N/A   Overcast
10:16 PM 39.2 °F 35.6 °F 87% 29.09 in 6.0 mi North - - N/A   Overcast
10:36 PM 39.2 °F 35.6 °F 87% 29.09 in 6.0 mi North - - N/A   Overcast
10:56 PM 39.2 °F 35.6 °F 87% 29.09 in 7.0 mi North - - N/A   Overcast
11:16 PM 39.2 °F 35.6 °F 87% 29.10 in 7.0 mi North - - N/A   Overcast
11:36 PM 39.2 °F 35.6 °F 87% 29.11 in 5.0 mi North - - N/A   Overcast
11:56 PM 39.2 °F 35.6 °F 87% 29.12 in 7.0 mi North - - N/A   Overcast